STARLINK-30396, 57964

Orbit data source: Space-Track

STARLINK-30396, 57964 is a payload satellite owned by SpaceX/Seattle (US) in LEO that was launched on Sat, 30 Sep 2023 UTC via an FALCON 9 launch vehicle from the Air Force Eastern Test Range (AFETR). Payload-class satellites include a variety of spacecraft equipped with specific instruments for various scientific and technological missions. These include communications satellites like Starlink; space stations such as the ISS; scientific satellites like the Hubble; Earth observation satellites from companies like Planet Labs, Umbra, and HawkEye 360; GPS; miniature CubeSats for education and research; and military/defense satellites.

Loading next visibility...
Identifier
57964, 2023-151A
Orbit
LEO
Country
Flag of USUS
Related business
Manufacturer
SpaceX/Seattle
Mission
Operational Commercial Communications
Bus & Motor
STARLINK V2M, Unknown motor
Mass
730 kg wet, ~700 kg dry
Launch date (UTC)
2023-09-30 (3 years ago)
Launch vehicle
FALCON 9
Launch site
Air Force Eastern Test Range (AFETR)
Object type
Payload
Rocket body
Debris
Shape & HBR
Box + 2 Pan, 17.7 m
Radar Cross Section
33.884 m², Large (>1 m²)

Expand to show TLE details & history
Last TLE update: 1 day ago

TLE from 1 day ago
0 STARLINK-30396
1 57964U 23151A   26236.08392925  .00000419  00000-0  24735-4 0  9999
2 57964  43.0019 110.9605 0001046 274.0754  85.9978 15.27580933161368
Epoch: 2026-08-24T02:00Z
TLE epoch observation values (Epoch: 2026-08-24T02:00:51.487Z)
Latitude
-0.00001°
Longitude
108.37524°
Altitude
482.772 km
Speed
7.626 km/s
True Right ascension
07h 23m 50s
True Declination
0° 00' 00"
Sunlit
Object was in daylight at epoch
Visualization orbit readout
Latitude
Unknown
Longitude
Unknown
Altitude
Unknown
Speed
Unknown
Apparent Right ascension
Unknown
Apparent Declination
Unknown
Sunlit
N/A
Visualization observer readout
Local Sidereal Time
00:48:01
Azimuth
Unknown
Elevation
Unknown
Doppler factor
Unknown
Orbital elements
Apogee altitude
485.709 km
Perigee altitude
484.273 km
Semi-major axis
6,863.128 km
Eccentricity
0.0001
Inclination
43.0019°
RAAN
110.9605°
Arg. of periapsis
274.0754°
True anomaly
86.00976°
Mean anomaly
85.9978°
Eccentric anomaly
86.00378°
Mean motion
3.81733 °/min
Orbital period
94.31 mins
BSTAR
0.000024735
Loading maneuver chart data...
Computing Atmospheric mass density...
Loading historical data...
Loading historical data...
Loading historical data...
Loading historical data...
Loading historical data...
Loading historical data...
Loading historical data...

Documentation

Showing up to 5 results
|